Location: Arroyo de Valdeoliva
(40.1604°N, 4.9878°W)
Time: 12:26:40
(UTC+00:00)

ARIANE 6 FM1 Upper Stage - Pass Details

Date: 22 February 2026
Orbit: 523 x 607 km, 62.0° (Epoch: 8 March)

Event Time Altitude Azimuth Distance (km) Brightness Sun altitude
Rises 19:16:21 0° 308° (NW) 2,656 7.0 -14.6°
Reaches altitude 10° 19:18:59 10° 291° (WNW) 1,768 6.3 -15.1°
Maximum altitude 19:21:50 19° 244° (WSW) 1,288 5.3 -15.6°
Drops below altitude 10° 19:24:42 10° 198° (SSW) 1,778 5.4 -16.2°
Sets 19:27:22 0° 180° (S) 2,677 6.1 -16.7°
